STARLINK-30269 (57528 NORAD) Tracking and Keplerian Element Data

This shows tracking and keplerian element data for the satellite.

Feedback or suggestion? Click here.




ElementValue
Catalog57528
NameSTARLINK-30269
Epoch Orbit2396
Epoch Day12.90591792
Epoch Year2024
RAAN319.7471
Inclination43.0037
Eccentricity6.35E-05
Argument of Perigee234.6709
Mean Anonmoly125.4074
Mean Motion15.02533461
Decay Rate-3.37E-06
L11 57528U 23115H 24012.90591792 -.00000337 00000+0 -99193-5 0 9990
L22 57528 43.0037 319.7471 0000635 234.6709 125.4074 15.02533461 23966



Live tracking and technical data element details for STARLINK-30269 (NORAD 57528). STARLINK-30269 can be tracked NOW for your location showing map with azimuth and elevation plus other details from your city location.







IsCatalogInMostPopularTable: catalog: 57528, numindb: 26
Update: records affected: 1



GetName: 57528 STARLINK-30269

Hit Count: updated at: Thu, 29 Feb 2024 11:17:46 GMT